Miguel Paz

Recruteur - San Martín SJ
5 Août 2027
Jeudi
Processus

Personnalité

Adaptabilité (13) Ambition (9) Controverse (1) Loyauté (1) Pression (2) Professionnalisme (5) Sportivité (18) Tempérament (11)

Profil

Style d'entraînement Démocratique
Diplôme Continental Pro
Détermination 5
Gestion des joueurs 11
Motivation 10
Discipline 6
Satisfaction professionnelle
100%
Fatigue
0%
Rôle Recruteur
Salaire 66.0K p/s
Contrat 14.03.2030

Performance

Comportement Bon
Efficacité de l'entraînement
45%
Développement des joueurs
25%
Prévention des blessures
20%
Mise en place tactique
55%

Événements récents

A participé à une réunion de recrutement maintenant
A participé à une réunion de recrutement 7j
A recommandé une cible de transfert 7j
A participé à une réunion de recrutement 7j
A participé à une réunion de recrutement 14j
A recommandé une cible de transfert 14j
A participé à une réunion de recrutement 21j
A recommandé une cible de transfert 21j

Suivi en cours

111
Joueur Club Statut Capacité Confiance Observé Dernière observation Dernier vote
Iván Barbona Colón Actif 97 / 104 62% 1 28.06.2027 Approuver
Jordan Amissah Burton Albion Actif 108 / 105 40% 1 29.11.2026 -
Matevž Vidovšek Olimpija Ljubljana Actif 113 / 121 40% 1 29.11.2026 -
Josh Tymon Swansea City Actif 137 / 132 40% 1 28.11.2026 -
George Wickens Lincoln City Actif 116 / 116 40% 1 27.11.2026 -
Will Mannion Charlton Athletic Actif 121 / 112 40% 1 27.11.2026 -
Bruno Antúnez Boston River Actif 108 / 116 40% 4 25.11.2026 -
Zach Hemming Chesterfield Actif 101 / 102 40% 2 25.11.2026 -
Adam Randell Bristol City Actif 135 / 127 40% 1 23.11.2026 -
Yhormar Hurtado Lechia Actif 110 / 115 40% 2 22.11.2026 -
Matheus Silva Qarabag Actif 135 / 112 40% 1 22.11.2026 -
Patrik Demjén MTK Budapest Actif 119 / 104 40% 1 20.11.2026 -
Alfie Whiteman Newport County Actif 121 / 104 40% 1 20.11.2026 -
Pablo García Gijón Actif 107 / 111 40% 1 20.11.2026 -
Ignacio Rodríguez Racing Club Actif 132 / 124 40% 3 19.11.2026 -
Rodrigo González Aldosivi Actif 118 / 116 40% 1 19.11.2026 -
Will Dennis Milton Keynes Dons Actif 93 / 113 40% 1 18.11.2026 -
Dayne St. Clair Inter Miami CF Actif 129 / 120 40% 2 16.11.2026 -
Justin Hammel Grasshopper Actif 111 / 115 40% 1 16.11.2026 -
Patrick Schulte Columbus Crew Actif 115 / 116 40% 2 14.11.2026 -
Carlos da Rosa Cerro Actif 90 / 101 40% 1 10.11.2026 -
Naledi Hlongwane Wa All Stars Actif 98 / 102 40% 1 08.11.2026 -
Csanád Vilmos Dénes Debrecen Actif 101 / 105 40% 1 08.11.2026 -
Anthony Patterson Wrexham Actif 130 / 136 40% 3 06.11.2026 -
Egoitz Arana Real Sociedad Actif 111 / 114 40% 2 06.11.2026 -
Xavier Biscayzacú Defensor Sporting Actif 122 / 133 40% 1 06.11.2026 -
Esteban Crucci Wanderers Actif 91 / 111 40% 1 06.11.2026 -
Sandi Zajc NK Domzale Actif 99 / 106 40% 1 04.11.2026 -
Eneko Astigarraga Real Sociedad Actif 88 / 87 40% 1 04.11.2026 -
Emiliano Álvarez Progreso Actif 116 / 127 40% 1 02.11.2026 -
Mateo Mendoza Godoy Cruz Actif 116 / 127 40% 1 01.11.2026 -
Agustín Buffa Wanderers Actif 91 / 94 40% 1 31.10.2026 -
Juan Pablo Salomoni Union La Calera Actif 102 / 114 40% 2 29.10.2026 -
Óscar Díaz Miramar Misiones Actif 102 / 117 40% 1 29.10.2026 -
Drake Callender Minnesota United FC Actif 123 / 117 40% 1 28.10.2026 -
Roman Celentano FC Cincinnati Actif 118 / 113 40% 1 28.10.2026 -
Diego Enríquez Sporting Cristal Actif 119 / 121 40% 3 26.10.2026 -
Josh Keeley Luton Town Actif 134 / 116 40% 1 26.10.2026 -
Thomas Carrique Andorra Actif 131 / 127 40% 2 25.10.2026 -
Lucas Souto Defensa y Justicia Actif 123 / 120 40% 1 25.10.2026 -
Facundo Miño Deportivo Riestra Actif 115 / 117 40% 1 24.10.2026 -
Luis Ingolotti Atlético Tucumán Actif 112 / 121 40% 2 23.10.2026 -
Teboho Mokoena Mamelodi Sundowns Actif 144 / 124 40% 2 22.10.2026 -
Álex Vázquez Racing Actif 104 / 109 40% 1 22.10.2026 -
Myles Roberts Cambridge United Actif 89 / 103 40% 1 22.10.2026 -
Alex Bass Peterborough United Actif 100 / 113 40% 1 22.10.2026 -
Leo Castledine Middlesbrough Actif 112 / 142 40% 1 21.10.2026 -
Balázs Tóth Blackburn Rovers Actif 137 / 114 40% 1 20.10.2026 -
Tobías Bovone Deportivo Pereira Actif 112 / 109 40% 1 19.10.2026 -
Fernando Hernández Bekescsaba Actif 82 / 94 40% 1 17.10.2026 -
Leandro Lozano Boca Juniors Actif 128 / 126 40% 1 14.10.2026 -
Mauro Casoli Talleres Actif 94 / 110 40% 1 13.10.2026 -
Lautaro Petruchi Gimnasia y Esgrima Actif 113 / 115 40% 1 11.10.2026 -
Viktor Johansson Stoke City Actif 136 / 141 40% 1 10.10.2026 -
Luciano Jachfe Nueva Chicago Actif 119 / 123 40% 1 09.10.2026 Plus d'infos
Alan García Wanderers Actif 106 / 108 40% 1 09.10.2026 -
Alexis Gutiérrez Club America Actif 120 / 122 40% 3 08.10.2026 -
Ortwin De Wolf KV Mechelen Actif 107 / 116 40% 1 05.10.2026 -
Lucas Verza Olimpia Actif 103 / 111 40% 1 05.10.2026 -
Ricardo Echeverría Santos Laguna Actif 118 / 118 40% 1 04.10.2026 -
José Alberti Wanderers Actif 125 / 128 40% 2 30.09.2026 -
Pablo Monroy Pumas UNAM Actif 114 / 120 40% 1 30.09.2026 -
Alejandro Gómez Tijuana Actif 121 / 117 40% 2 28.09.2026 -
Aarón Mejía Tijuana Actif 116 / 121 40% 3 27.09.2026 -
Santiago Franca Cerro Largo Actif 99 / 96 40% 1 27.09.2026 -
Diego Capdevila Cerro Actif 82 / 95 40% 1 26.09.2026 -
Sergio Reguilón Inter Miami CF Actif 133 / 130 40% 1 26.09.2026 -
Alexander Lyng SonderjyskE Actif 103 / 126 40% 1 26.09.2026 -
Luka Andrade Montevideo City Torque Actif 98 / 110 40% 1 25.09.2026 -
Dylan Cabral Arsenal Actif 89 / 101 40% 1 25.09.2026 -
Ezekiel Kwame Alladoh Philadelphia Union Actif 111 / 117 40% 1 23.09.2026 -
Renato Solís Sporting Cristal Actif 121 / 126 40% 1 20.09.2026 -
Juan Moreno La Luz Actif 115 / 118 40% 1 20.09.2026 -
Jhon Gamboa Envigado Actif 114 / 119 40% 1 20.09.2026 -
Juan Diego Giraldo Union Magdalena Actif 94 / 111 40% 1 20.09.2026 -
Erik de los Santos Racing Actif 117 / 117 40% 1 19.09.2026 -
Uziel García Morelia Actif 109 / 109 40% 1 19.09.2026 -
Felipe Serrés Wanderers Actif 100 / 97 40% 2 17.09.2026 -
Ihojan Pérez Cerro Largo Actif 98 / 94 40% 1 17.09.2026 -
Juan José Mera Deportes Tolima Actif 125 / 118 40% 1 16.09.2026 -
Diego Corral Universidad Catolica Actif 95 / 94 40% 1 16.09.2026 -
Angel Zamudio Sport Huancayo Actif 112 / 122 40% 2 15.09.2026 -
Lucas Bergström Union Berlin Actif 135 / 134 40% 1 13.09.2026 -
Diego Chávez Deportivo Pasto Actif 114 / 112 40% 2 08.09.2026 -
Joaquín Varela Independiente Medellin Actif 120 / 117 40% 1 08.09.2026 -
Lucas Di Maio Cobresal Actif 83 / 78 40% 1 07.09.2026 -
Emiliano Ancheta Nacional Actif 127 / 113 40% 2 06.09.2026 -
Santiago Noreña Envigado Actif 105 / 106 40% 1 06.09.2026 -
Santiago Sequeira Central Espanol Actif 83 / 98 40% 1 06.09.2026 -
Tiago Pucciarelli IF Elfsborg Actif 95 / 116 40% 1 06.09.2026 -
Nicolás Campisi Sportivo Luqueno Actif 128 / 119 40% 1 02.09.2026 -
Enzo Giménez Queretaro Actif 116 / 123 40% 2 31.08.2026 -
Germán Barrios Defensor Sporting Actif 103 / 115 40% 1 31.08.2026 -
Matías Contrera Hrvatski Dragovoljac Actif 99 / 108 40% 1 31.08.2026 -
Jorge Caicedo Cortulua Actif 98 / 116 40% 1 29.08.2026 -
Michael Carcelén Queretaro Actif 121 / 122 40% 2 26.08.2026 -
Ezequiel Neira Carabobo Actif 112 / 116 40% 1 25.08.2026 -
Junior Hernández Deportes Tolima Actif 122 / 122 40% 1 24.08.2026 -
Alejo Macelli Cerro Actif 101 / 112 40% 1 23.08.2026 -
Cristhian Riveros General Caballero Actif 98 / 96 40% 1 21.08.2026 -
Felipe Montero La Equidad Actif 106 / 110 40% 1 19.08.2026 -
Carlos Jimenez Veracruz Actif 124 / 115 40% 1 19.08.2026 -
Beycker Velásquez Zamora Actif 109 / 94 40% 1 18.08.2026 -
Francisco Casanova Cerrito Actif 108 / 102 40% 1 18.08.2026 -
José Ortiz Atletico Bucaramanga Actif 121 / 112 40% 1 17.08.2026 -
Cristhián Rivas Estudiantes de Merida Actif 118 / 120 40% 2 16.08.2026 -
José Luis Caicedo Barranquilla Actif 134 / 119 40% 1 11.08.2026 -
Paul Bellón Leon Actif 123 / 115 40% 1 11.08.2026 -
Diego Romero Liverpool Montevideo Actif 116 / 110 40% 1 09.08.2026 -
Fabrizio Correa Juventud Actif 125 / 123 40% 1 08.08.2026 -
Bryan Rivera Estudiantes de Merida Actif 102 / 100 40% 1 02.08.2026 -